GFSNW_500_temp_231.txt.gz
Temp
-14 -14 -14 -15 -14 -16 -17 -17 -15 -15 -16 -15 -15 -14 -13 -13 -13 -12 -12 -12 -12 -12 -12 -12 -12 -12 -13 -12 -12 -13 -13 -14 -13 -12 -12 -12 -11 -13 -13 -12 -10 -10 -11 -9
-15 -15 -14 -14 -14 -15 -15 -15 -16 -16 -16 -16 -14 -14 -14 -13 -13 -13 -12 -12 -12 -13 -12 -12 -12 -12 -13 -12 -12 -13 -13 -14 -13 -12 -13 -12 -12 -12 -12 -12 -12 -10 -10 -9
-15 -15 -15 -15 -14 -14 -14 -16 -17 -16 -16 -15 -15 -14 -14 -14 -13 -13 -13 -12 -13 -13 -12 -12 -12 -12 -12 -12 -13 -13 -14 -14 -14 -13 -13 -13 -13 -12 -11 -12 -11 -10 -9 -9
-15 -15 -14 -14 -14 -14 -15 -16 -17 -16 -13 -12 -13 -15 -14 -14 -13 -13 -13 -13 -13 -13 -13 -13 -13 -13 -13 -13 -13 -14 -15 -14 -14 -13 -13 -13 -12 -11 -12 -11 -10 -10 -10 -9
-16 -15 -15 -14 -14 -14 -15 -15 -14 -14 -14 -15 -15 -14 -13 -13 -13 -14 -13 -13 -13 -14 -13 -13 -13 -14 -15 -16 -15 -14 -14 -13 -14 -13 -13 -12 -11 -10 -11 -11 -11 -10 -10 -8
-17 -16 -15 -15 -15 -15 -14 -14 -15 -15 -15 -14 -15 -12 -12 -14 -15 -14 -14 -14 -14 -14 -13 -14 -15 -16 -16 -15 -15 -15 -14 -13 -14 -12 -13 -13 -9 -10 -10 -11 -11 -11 -10 -9
-17 -15 -15 -15 -15 -16 -17 -16 -15 -14 -13 -14 -12 -14 -14 -14 -14 -13 -14 -15 -14 -13 -15 -15 -16 -16 -16 -15 -15 -14 -14 -14 -14 -13 -13 -12 -8 -10 -11 -11 -11 -11 -10 -10
-16 -16 -16 -15 -15 -16 -16 -16 -16 -14 -14 -13 -15 -14 -14 -15 -15 -15 -14 -14 -13 -15 -15 -16 -16 -15 -15 -14 -14 -14 -14 -14 -14 -14 -13 -11 -9 -10 -11 -12 -10 -10 -10 -11
-17 -16 -16 -16 -16 -16 -16 -15 -16 -16 -15 -15 -15 -15 -15 -15 -15 -15 -15 -15 -15 -15 -16 -16 -15 -14 -14 -14 -13 -13 -14 -14 -14 -14 -13 -11 -10 -11 -12 -12 -8 -12 -12 -11
-17 -17 -17 -17 -16 -16 -16 -16 -16 -16 -16 -16 -16 -15 -15 -16 -15 -15 -15 -15 -15 -15 -15 -15 -15 -15 -15 -14 -13 -14 -15 -15 -14 -14 -14 -11 -10 -12 -14 -12 -9 -13 -12 -12
-18 -18 -18 -17 -17 -17 -17 -17 -17 -17 -16 -16 -16 -16 -16 -16 -16 -15 -15 -15 -14 -15 -15 -15 -15 -15 -15 -14 -14 -15 -15 -15 -14 -15 -15 -11 -11 -13 -13 -13 -13 -14 -13 -12
-19 -19 -18 -18 -17 -17 -17 -17 -17 -17 -17 -16 -16 -16 -16 -16 -16 -16 -15 -16 -15 -15 -16 -15 -16 -16 -16 -14 -14 -15 -15 -15 -15 -15 -14 -14 -13 -14 -13 -13 -13 -13 -13 -13
-19 -19 -19 -19 -19 -18 -18 -18 -17 -17 -17 -17 -16 -16 -16 -16 -16 -16 -16 -15 -16 -16 -16 -16 -16 -16 -15 -16 -14 -16 -16 -16 -16 -16 -13 -14 -14 -14 -14 -14 -13 -13 -14 -13
-19 -19 -20 -20 -20 -20 -19 -18 -19 -19 -18 -17 -17 -17 -17 -17 -17 -17 -16 -17 -17 -17 -17 -17 -17 -17 -17 -16 -16 -16 -15 -16 -17 -17 -16 -16 -16 -16 -15 -15 -15 -15 -16 -14
-20 -20 -20 -20 -20 -20 -20 -20 -19 -19 -19 -18 -18 -18 -18 -18 -18 -17 -17 -18 -17 -17 -17 -17 -17 -18 -18 -17 -17 -16 -16 -16 -17 -17 -16 -17 -16 -16 -15 -17 -17 -15 -15 -15
-21 -21 -21 -21 -21 -21 -21 -21 -20 -20 -20 -19 -19 -19 -19 -19 -19 -19 -18 -18 -18 -17 -17 -17 -17 -18 -19 -18 -17 -16 -17 -17 -17 -17 -17 -17 -16 -17 -16 -17 -17 -17 -17 -17
-22 -22 -22 -22 -22 -22 -22 -21 -21 -22 -22 -22 -21 -21 -20 -20 -19 -19 -18 -18 -18 -18 -19 -19 -19 -19 -19 -19 -18 -17 -18 -18 -18 -17 -17 -16 -17 -17 -18 -18 -18 -18 -18 -18
-22 -22 -22 -22 -22 -22 -22 -22 -22 -22 -22 -22 -21 -21 -21 -20 -20 -20 -20 -19 -19 -19 -19 -19 -19 -20 -20 -20 -18 -19 -19 -19 -19 -19 -19 -17 -17 -19 -19 -20 -19 -19 -19 -19
-22 -22 -22 -22 -22 -22 -22 -22 -22 -22 -22 -21 -21 -21 -21 -21 -21 -21 -21 -21 -21 -21 -21 -21 -22 -21 -20 -20 -20 -21 -20 -21 -21 -21 -21 -20 -20 -20 -20 -21 -21 -20 -20 -20
-22 -23 -22 -22 -22 -22 -22 -23 -24 -24 -24 -23 -23 -23 -22 -22 -23 -23 -23 -23 -24 -23 -23 -24 -24 -22 -23 -24 -23 -22 -22 -21 -21 -22 -21 -21 -22 -22 -22 -22 -22 -22 -21 -21
-24 -24 -24 -25 -25 -25 -26 -27 -27 -27 -27 -25 -26 -26 -27 -27 -26 -27 -26 -26 -27 -26 -26 -25 -25 -24 -25 -25 -26 -25 -25 -25 -24 -24 -24 -25 -24 -24 -24 -23 -23 -23 -23 -22
-27 -28 -28 -28 -28 -28 -28 -28 -28 -28 -27 -28 -28 -28 -28 -28 -28 -28 -28 -28 -27 -27 -27 -27 -26 -26 -27 -27 -27 -27 -27 -27 -27 -27 -27 -27 -27 -27 -27 -27 -26 -26 -25 -25
-28 -28 -28 -28 -28 -28 -28 -28 -28 -28 -28 -28 -28 -28 -28 -28 -28 -28 -28 -28 -28 -27 -27 -27 -27 -28 -28 -27 -27 -27 -27 -28 -27 -27 -27 -27 -27 -27 -27 -27 -27 -27 -27 -27
-28 -28 -28 -28 -28 -28 -28 -28 -28 -28 -28 -29 -28 -28 -28 -28 -28 -28 -28 -28 -28 -27 -27 -27 -27 -28 -27 -27 -27 -28 -27 -27 -27 -28 -28 -28 -27 -27 -28 -28 -28 -28 -28 -28
-28 -28 -29 -29 -29 -29 -29 -29 -29 -29 -29 -29 -28 -28 -28 -28 -28 -28 -28 -28 -28 -27 -28 -28 -28 -28 -28 -28 -28 -27 -27 -27 -27 -27 -27 -27 -27 -27 -27 -28 -28 -28 -28 -28
-29 -29 -29 -29 -29 -29 -29 -29 -29 -29 -29 -29 -29 -29 -29 -28 -28 -28 -28 -28 -27 -28 -28 -28 -28 -28 -27 -27 -27 -27 -27 -27 -27 -27 -28 -28 -28 -28 -28 -28 -28 -28 -28 -28
-28 -28 -28 -28 -29 -29 -29 -29 -29 -29 -29 -29 -29 -29 -29 -28 -28 -28 -28 -28 -28 -28 -28 -28 -28 -27 -27 -27 -27 -27 -27 -27 -27 -28 -28 -28 -28 -28 -28 -28 -28 -28 -28 -28

GFSNW_500_temp_234.txt.gz
Temp
-16 -15 -16 -15 -15 -14 -15 -15 -14 -15 -16 -18 -17 -14 -10 -14 -14 -14 -13 -13 -13 -13 -12 -13 -12 -12 -12 -12 -12 -13 -12 -12 -13 -13 -13 -13 -12 -12 -13 -13 -13 -13 -12 -9
-17 -16 -16 -15 -15 -15 -14 -15 -14 -15 -17 -17 -14 -13 -15 -15 -15 -14 -14 -13 -13 -13 -13 -13 -13 -12 -12 -13 -13 -12 -13 -13 -13 -13 -13 -13 -13 -14 -13 -12 -12 -12 -11 -9
-16 -16 -16 -16 -16 -16 -15 -14 -16 -16 -17 -15 -15 -15 -14 -14 -15 -15 -14 -14 -13 -13 -13 -13 -13 -14 -14 -13 -13 -13 -13 -13 -13 -13 -13 -13 -13 -13 -14 -14 -12 -11 -10 -10
-17 -16 -16 -16 -15 -15 -15 -15 -15 -15 -13 -12 -11 -14 -15 -15 -15 -14 -15 -14 -13 -13 -13 -13 -13 -14 -14 -14 -13 -13 -13 -14 -14 -14 -14 -14 -13 -12 -13 -13 -13 -13 -10 -9
-17 -16 -16 -15 -15 -16 -17 -16 -15 -14 -13 -14 -14 -14 -13 -13 -12 -15 -14 -14 -14 -14 -13 -13 -14 -15 -15 -15 -14 -14 -14 -14 -15 -13 -14 -14 -12 -12 -13 -12 -12 -11 -11 -8
-18 -16 -15 -15 -15 -16 -16 -15 -15 -14 -14 -14 -15 -14 -12 -11 -14 -15 -14 -15 -15 -14 -14 -14 -15 -16 -15 -15 -15 -15 -15 -15 -15 -12 -14 -14 -11 -11 -12 -11 -11 -11 -10 -10
-19 -17 -15 -15 -15 -16 -16 -14 -14 -14 -14 -14 -13 -13 -13 -14 -14 -14 -15 -15 -15 -14 -15 -15 -16 -15 -15 -16 -16 -15 -15 -15 -14 -13 -14 -13 -8 -12 -12 -11 -11 -11 -11 -12
-18 -18 -15 -15 -16 -16 -16 -15 -15 -15 -14 -14 -13 -14 -14 -15 -16 -16 -15 -15 -16 -16 -16 -17 -17 -17 -16 -14 -14 -15 -15 -15 -14 -14 -14 -12 -9 -10 -12 -11 -10 -11 -11 -12
-18 -16 -16 -16 -16 -16 -17 -16 -15 -15 -15 -15 -14 -15 -14 -14 -15 -16 -14 -15 -16 -16 -17 -16 -16 -15 -15 -15 -14 -14 -15 -15 -15 -15 -14 -12 -9 -11 -12 -12 -9 -13 -13 -13
-18 -18 -16 -17 -16 -16 -16 -15 -14 -15 -15 -15 -14 -14 -14 -15 -15 -15 -15 -16 -17 -17 -17 -16 -16 -15 -15 -15 -14 -14 -15 -15 -15 -14 -15 -11 -11 -12 -14 -13 -12 -14 -14 -14
-19 -18 -17 -16 -17 -17 -16 -16 -15 -15 -15 -14 -13 -14 -15 -16 -16 -15 -15 -16 -16 -16 -16 -16 -16 -16 -14 -15 -14 -15 -15 -15 -15 -15 -15 -11 -12 -13 -14 -14 -14 -14 -14 -14
-18 -17 -18 -18 -17 -17 -16 -16 -15 -15 -16 -16 -16 -16 -16 -16 -16 -16 -16 -16 -16 -16 -16 -16 -15 -15 -14 -14 -14 -15 -15 -15 -15 -15 -13 -14 -15 -15 -15 -14 -13 -14 -14 -14
-19 -18 -17 -17 -17 -17 -17 -17 -17 -17 -17 -17 -17 -17 -16 -16 -16 -16 -16 -16 -16 -16 -15 -15 -15 -15 -15 -15 -15 -15 -15 -15 -15 -16 -14 -15 -15 -14 -14 -14 -14 -14 -14 -14
-19 -18 -18 -18 -18 -18 -18 -18 -17 -18 -17 -17 -17 -17 -17 -17 -16 -16 -16 -16 -16 -16 -15 -15 -15 -15 -15 -15 -15 -15 -15 -15 -16 -16 -16 -16 -15 -15 -15 -15 -14 -15 -15 -15
-20 -19 -19 -19 -18 -18 -18 -18 -17 -17 -17 -17 -17 -17 -17 -17 -17 -17 -16 -16 -16 -16 -16 -16 -16 -16 -16 -16 -16 -15 -15 -16 -17 -16 -17 -17 -16 -16 -16 -16 -16 -16 -16 -16
-20 -20 -20 -19 -19 -19 -18 -19 -19 -18 -18 -18 -18 -18 -17 -17 -17 -17 -17 -17 -17 -17 -17 -17 -17 -17 -17 -17 -16 -16 -16 -17 -17 -17 -17 -17 -17 -17 -17 -17 -17 -16 -17 -16
-21 -21 -20 -20 -20 -20 -20 -19 -19 -19 -18 -18 -18 -18 -18 -18 -18 -18 -18 -18 -18 -18 -18 -18 -17 -18 -17 -17 -16 -16 -18 -18 -18 -18 -18 -17 -17 -18 -18 -18 -17 -17 -17 -17
-22 -21 -22 -21 -21 -21 -21 -20 -20 -19 -19 -19 -19 -18 -18 -18 -18 -18 -18 -18 -18 -18 -18 -18 -18 -18 -18 -17 -17 -18 -18 -18 -18 -17 -18 -18 -18 -18 -18 -17 -17 -18 -18 -18
-22 -22 -22 -22 -22 -22 -22 -22 -21 -21 -21 -20 -20 -20 -20 -19 -19 -19 -19 -19 -19 -19 -18 -19 -18 -19 -19 -19 -18 -18 -18 -18 -18 -18 -18 -18 -18 -18 -18 -19 -18 -19 -19 -19
-22 -23 -23 -22 -22 -22 -22 -22 -22 -22 -22 -22 -22 -22 -22 -21 -21 -21 -21 -21 -21 -21 -20 -20 -20 -20 -20 -19 -19 -19 -19 -19 -19 -18 -19 -20 -20 -20 -20 -21 -21 -21 -20 -20
-23 -22 -22 -23 -23 -23 -23 -22 -22 -22 -22 -22 -22 -22 -22 -22 -22 -22 -22 -22 -22 -21 -21 -21 -21 -21 -21 -21 -21 -21 -20 -20 -21 -21 -22 -23 -23 -24 -24 -24 -24 -24 -24 -25
-23 -24 -23 -23 -23 -24 -24 -23 -23 -22 -23 -23 -23 -24 -24 -23 -24 -23 -24 -24 -24 -24 -24 -24 -23 -24 -24 -24 -24 -24 -24 -25 -25 -25 -25 -26 -26 -26 -26 -26 -26 -26 -26 -26
-26 -26 -26 -26 -26 -26 -25 -25 -24 -24 -25 -27 -26 -26 -27 -27 -26 -26 -27 -27 -27 -27 -26 -25 -26 -27 -27 -27 -27 -27 -27 -27 -27 -27 -27 -27 -27 -27 -27 -27 -27 -27 -27 -27
-28 -28 -28 -28 -28 -28 -27 -27 -27 -27 -27 -28 -28 -28 -28 -28 -28 -28 -28 -28 -28 -27 -27 -26 -27 -27 -27 -27 -27 -27 -27 -27 -27 -27 -27 -27 -27 -27 -27 -28 -27 -27 -27 -28
-28 -28 -28 -28 -28 -28 -28 -28 -28 -28 -28 -28 -28 -28 -28 -28 -28 -28 -28 -28 -28 -27 -27 -27 -27 -27 -27 -27 -27 -27 -26 -26 -26 -26 -26 -26 -26 -27 -27 -27 -27 -27 -27 -27
-28 -28 -28 -28 -28 -28 -28 -28 -28 -28 -28 -29 -28 -28 -28 -28 -28 -28 -28 -28 -28 -28 -28 -28 -28 -27 -27 -27 -27 -26 -26 -26 -26 -26 -26 -26 -26 -27 -27 -27 -27 -27 -28 -28
-28 -28 -28 -28 -28 -28 -28 -28 -28 -28 -29 -29 -28 -28 -28 -28 -28 -28 -28 -28 -28 -28 -28 -28 -28 -28 -27 -27 -27 -26 -26 -26 -26 -26 -26 -27 -27 -27 -27 -27 -27 -27 -28 -28

GFSNW_500_temp_237.txt.gz
Temp
-26 -22 -18 -17 -16 -17 -17 -16 -17 -16 -16 -15 -17 -18 -10 -12 -14 -15 -15 -15 -14 -14 -14 -13 -13 -12 -12 -12 -13 -13 -12 -12 -12 -12 -13 -13 -13 -13 -13 -13 -13 -12 -12 -11
-27 -24 -19 -17 -17 -17 -16 -16 -17 -15 -16 -16 -16 -13 -14 -14 -14 -14 -15 -15 -15 -14 -14 -14 -14 -13 -13 -13 -13 -13 -13 -12 -12 -12 -13 -13 -13 -13 -13 -13 -13 -12 -13 -11
-28 -26 -20 -18 -17 -17 -17 -17 -17 -16 -17 -15 -15 -14 -13 -13 -13 -14 -15 -15 -15 -15 -14 -14 -14 -14 -14 -13 -13 -13 -13 -13 -13 -13 -13 -13 -13 -13 -13 -13 -13 -13 -12 -11
-28 -26 -22 -18 -17 -17 -17 -18 -18 -16 -17 -16 -15 -14 -14 -14 -13 -13 -15 -15 -15 -14 -14 -14 -14 -15 -15 -15 -14 -13 -14 -14 -13 -13 -13 -13 -14 -13 -13 -13 -13 -13 -12 -12
-28 -26 -23 -18 -17 -18 -18 -20 -19 -17 -16 -15 -14 -13 -13 -13 -13 -14 -13 -13 -14 -14 -14 -15 -14 -15 -15 -15 -16 -15 -15 -15 -15 -13 -14 -14 -13 -12 -13 -12 -12 -13 -13 -11
-26 -26 -23 -18 -18 -18 -18 -19 -18 -17 -15 -14 -16 -14 -12 -12 -13 -15 -14 -15 -16 -15 -15 -15 -15 -16 -17 -16 -16 -16 -16 -15 -15 -14 -15 -14 -12 -12 -12 -12 -13 -13 -13 -12
-25 -25 -23 -19 -18 -18 -19 -19 -18 -17 -16 -16 -14 -13 -13 -13 -13 -14 -15 -15 -16 -16 -16 -16 -16 -17 -17 -17 -17 -16 -16 -16 -16 -15 -15 -14 -10 -12 -13 -13 -13 -14 -13 -13
-24 -24 -23 -18 -17 -17 -19 -17 -17 -16 -16 -15 -15 -15 -14 -14 -15 -15 -16 -16 -17 -17 -18 -17 -17 -17 -16 -15 -15 -16 -16 -17 -16 -16 -15 -13 -11 -12 -13 -14 -11 -14 -14 -14
-23 -22 -22 -17 -17 -17 -19 -17 -16 -17 -16 -15 -16 -16 -14 -15 -15 -15 -14 -16 -17 -18 -18 -18 -17 -17 -15 -15 -15 -15 -16 -17 -17 -16 -15 -14 -11 -13 -13 -13 -13 -15 -14 -13
-22 -21 -20 -20 -17 -17 -18 -17 -17 -17 -17 -14 -16 -14 -14 -15 -15 -15 -15 -15 -16 -17 -17 -17 -16 -16 -16 -15 -15 -15 -16 -16 -16 -16 -16 -13 -13 -14 -15 -15 -13 -15 -15 -14
-20 -20 -19 -18 -18 -18 -19 -17 -16 -16 -16 -15 -15 -15 -15 -15 -15 -15 -15 -16 -16 -17 -17 -17 -16 -15 -15 -15 -14 -15 -16 -16 -15 -15 -16 -14 -13 -14 -15 -14 -14 -14 -15 -15
-20 -20 -18 -18 -18 -17 -16 -17 -17 -16 -16 -15 -15 -15 -15 -15 -15 -15 -15 -15 -15 -16 -17 -17 -16 -16 -15 -15 -15 -16 -15 -14 -15 -16 -15 -14 -15 -15 -15 -15 -14 -15 -15 -14
-20 -20 -19 -19 -17 -16 -16 -16 -16 -16 -16 -16 -16 -16 -16 -15 -16 -15 -16 -15 -16 -16 -16 -16 -17 -17 -16 -15 -14 -15 -14 -15 -15 -15 -14 -15 -15 -15 -15 -15 -15 -15 -15 -15
-20 -21 -19 -18 -19 -17 -17 -17 -16 -17 -17 -17 -17 -17 -16 -16 -16 -16 -16 -16 -17 -17 -17 -17 -17 -17 -16 -15 -14 -14 -15 -15 -15 -15 -15 -15 -15 -15 -15 -15 -15 -15 -15 -15
-21 -20 -20 -19 -18 -18 -18 -17 -17 -17 -17 -17 -16 -16 -16 -16 -17 -16 -17 -17 -17 -17 -17 -17 -17 -16 -16 -16 -16 -15 -16 -16 -16 -16 -16 -16 -16 -16 -16 -16 -15 -16 -16 -15
-20 -20 -20 -19 -19 -19 -18 -18 -18 -17 -17 -17 -17 -17 -17 -17 -17 -17 -17 -17 -17 -17 -17 -17 -17 -16 -16 -16 -16 -16 -16 -16 -17 -16 -16 -16 -16 -16 -16 -16 -16 -17 -17 -17
-21 -20 -20 -19 -19 -18 -19 -18 -18 -18 -17 -18 -18 -18 -18 -18 -18 -17 -18 -17 -17 -17 -17 -17 -17 -17 -17 -16 -16 -17 -17 -16 -16 -16 -16 -16 -17 -17 -17 -17 -17 -17 -16 -16
-21 -20 -20 -19 -19 -19 -19 -19 -19 -19 -19 -19 -18 -18 -18 -18 -18 -18 -18 -18 -18 -18 -18 -18 -18 -18 -18 -17 -18 -17 -17 -17 -17 -17 -17 -17 -17 -17 -18 -18 -17 -17 -17 -17
-22 -21 -20 -20 -20 -20 -19 -19 -19 -19 -19 -19 -19 -19 -19 -18 -18 -18 -18 -18 -18 -18 -18 -18 -18 -18 -18 -18 -18 -18 -18 -18 -18 -17 -17 -17 -17 -18 -18 -18 -17 -17 -17 -17
-23 -22 -22 -21 -21 -20 -20 -20 -20 -20 -19 -19 -19 -18 -18 -18 -18 -18 -18 -18 -18 -18 -18 -18 -18 -18 -18 -17 -17 -17 -18 -18 -18 -18 -18 -18 -18 -18 -18 -18 -18 -18 -19 -19
-23 -23 -23 -23 -22 -22 -23 -22 -22 -21 -21 -21 -20 -20 -20 -20 -20 -20 -19 -19 -19 -19 -19 -19 -19 -20 -20 -19 -19 -19 -19 -19 -20 -20 -19 -19 -19 -19 -20 -20 -21 -21 -21 -22
-23 -23 -23 -23 -23 -23 -23 -23 -23 -23 -22 -22 -22 -22 -22 -22 -22 -22 -21 -21 -21 -21 -21 -20 -21 -20 -21 -21 -21 -21 -20 -20 -20 -21 -21 -21 -21 -22 -22 -23 -24 -25 -25 -25
-23 -24 -24 -23 -23 -23 -23 -23 -23 -23 -23 -23 -23 -23 -23 -23 -22 -22 -23 -22 -22 -22 -22 -22 -22 -22 -22 -22 -22 -22 -22 -22 -22 -22 -23 -24 -25 -25 -25 -25 -26 -26 -26 -26
-26 -26 -27 -27 -26 -26 -26 -25 -25 -25 -25 -25 -25 -25 -25 -24 -24 -25 -25 -25 -25 -24 -24 -24 -24 -24 -24 -24 -25 -25 -25 -25 -25 -26 -26 -26 -26 -26 -26 -26 -26 -26 -26 -26
-27 -27 -28 -28 -28 -28 -27 -27 -27 -27 -27 -28 -28 -28 -28 -27 -27 -27 -27 -27 -26 -26 -26 -26 -26 -26 -27 -27 -27 -27 -27 -26 -26 -26 -26 -26 -26 -26 -26 -26 -26 -26 -26 -26
-27 -28 -28 -28 -28 -28 -28 -28 -28 -28 -28 -28 -28 -28 -28 -28 -28 -27 -27 -27 -27 -27 -27 -28 -27 -27 -27 -27 -27 -26 -26 -26 -26 -26 -26 -26 -26 -26 -26 -26 -26 -26 -27 -27
-27 -27 -28 -28 -28 -28 -28 -28 -28 -28 -28 -28 -28 -28 -28 -28 -28 -28 -28 -28 -28 -27 -27 -27 -27 -27 -27 -27 -26 -26 -26 -26 -26 -26 -26 -26 -26 -26 -26 -26 -27 -27 -27 -27

GFSNW_500_temp_240.txt.gz
Temp
-28 -28 -28 -27 -24 -20 -18 -18 -17 -16 -17 -18 -18 -17 -15 -13 -13 -14 -13 -16 -16 -16 -15 -14 -14 -13 -13 -13 -13 -13 -12 -13 -12 -12 -12 -12 -12 -12 -12 -12 -12 -12 -13 -12
-29 -29 -28 -28 -27 -24 -21 -18 -16 -17 -18 -20 -17 -17 -16 -15 -14 -14 -14 -14 -15 -15 -15 -15 -14 -14 -13 -13 -13 -13 -13 -13 -12 -12 -13 -13 -12 -12 -12 -13 -13 -12 -12 -11
-29 -29 -29 -28 -28 -27 -24 -19 -17 -18 -19 -18 -17 -17 -16 -14 -14 -14 -15 -14 -15 -15 -15 -15 -15 -14 -14 -14 -14 -14 -13 -13 -13 -13 -13 -13 -13 -13 -13 -13 -13 -13 -12 -12
-29 -29 -29 -29 -29 -28 -27 -21 -18 -18 -19 -18 -18 -18 -16 -14 -15 -13 -14 -15 -15 -15 -15 -15 -15 -15 -15 -14 -14 -14 -14 -13 -13 -13 -13 -13 -14 -13 -13 -13 -13 -13 -12 -12
-29 -29 -29 -29 -29 -29 -28 -22 -18 -18 -18 -20 -18 -18 -16 -15 -15 -14 -14 -13 -13 -15 -14 -15 -15 -15 -16 -16 -15 -14 -14 -14 -14 -14 -14 -14 -14 -14 -13 -13 -13 -13 -13 -12
-29 -29 -29 -29 -29 -29 -28 -23 -19 -20 -21 -20 -19 -17 -15 -14 -14 -14 -15 -15 -14 -14 -15 -16 -16 -16 -17 -16 -16 -16 -16 -16 -15 -15 -15 -15 -14 -13 -13 -13 -14 -14 -13 -13
-28 -28 -29 -29 -29 -29 -27 -21 -20 -22 -21 -20 -17 -16 -15 -15 -14 -14 -15 -15 -16 -17 -17 -17 -18 -18 -17 -17 -17 -17 -17 -16 -16 -15 -15 -15 -12 -13 -13 -13 -13 -14 -14 -13
-27 -27 -28 -28 -28 -28 -27 -23 -21 -22 -21 -20 -17 -16 -15 -15 -16 -15 -15 -15 -16 -17 -18 -18 -18 -18 -18 -17 -17 -16 -17 -17 -17 -17 -16 -14 -13 -13 -14 -14 -14 -14 -14 -14
-26 -26 -26 -26 -26 -27 -25 -22 -21 -22 -21 -19 -16 -16 -16 -16 -15 -15 -15 -15 -16 -17 -18 -19 -18 -16 -16 -16 -16 -17 -18 -18 -17 -17 -17 -14 -13 -14 -15 -15 -13 -14 -14 -14
-25 -25 -25 -25 -25 -25 -25 -21 -21 -21 -20 -18 -18 -18 -16 -15 -16 -16 -15 -16 -16 -16 -17 -17 -17 -16 -16 -15 -15 -17 -17 -17 -17 -17 -16 -14 -13 -15 -15 -15 -13 -16 -16 -15
-24 -24 -24 -24 -24 -24 -23 -20 -21 -21 -20 -19 -17 -17 -17 -16 -16 -16 -16 -16 -16 -17 -16 -16 -16 -15 -15 -15 -15 -16 -16 -17 -17 -17 -17 -13 -14 -16 -16 -16 -15 -16 -16 -15
-23 -23 -23 -22 -22 -22 -21 -21 -21 -21 -21 -20 -17 -17 -16 -16 -17 -16 -16 -16 -16 -16 -15 -15 -16 -16 -15 -15 -14 -16 -16 -16 -16 -17 -17 -16 -16 -16 -16 -15 -16 -16 -15 -14
-22 -22 -21 -21 -21 -19 -19 -20 -21 -21 -18 -19 -19 -17 -17 -16 -17 -17 -16 -16 -16 -15 -16 -16 -16 -16 -15 -15 -15 -16 -16 -17 -17 -17 -15 -16 -16 -15 -15 -15 -15 -15 -16 -16
-21 -21 -21 -22 -21 -20 -21 -20 -20 -19 -19 -19 -18 -18 -18 -17 -17 -17 -16 -16 -17 -17 -16 -16 -16 -16 -16 -16 -16 -17 -17 -17 -16 -16 -17 -16 -16 -16 -15 -15 -15 -15 -15 -16
-21 -20 -21 -22 -22 -22 -20 -19 -19 -18 -19 -20 -19 -18 -18 -17 -17 -17 -17 -16 -17 -16 -17 -17 -18 -16 -17 -17 -16 -16 -16 -17 -17 -16 -16 -15 -16 -16 -15 -16 -16 -16 -15 -16
-21 -21 -20 -21 -21 -22 -20 -20 -19 -19 -19 -19 -19 -18 -18 -17 -18 -17 -17 -17 -17 -17 -16 -17 -17 -17 -17 -17 -17 -16 -16 -16 -17 -17 -16 -16 -16 -17 -16 -16 -16 -16 -16 -16
-21 -20 -20 -20 -20 -21 -21 -20 -18 -18 -19 -19 -19 -19 -18 -18 -18 -18 -17 -17 -17 -17 -17 -17 -17 -17 -17 -17 -17 -16 -16 -16 -17 -17 -17 -16 -16 -16 -16 -16 -16 -16 -16 -16
-21 -20 -20 -20 -20 -20 -20 -20 -19 -20 -19 -19 -19 -19 -19 -18 -18 -18 -18 -17 -17 -18 -17 -17 -18 -18 -18 -17 -17 -16 -16 -16 -17 -17 -17 -17 -17 -16 -17 -17 -17 -17 -17 -17
-21 -21 -20 -20 -20 -20 -20 -19 -19 -20 -20 -20 -20 -20 -19 -18 -18 -18 -18 -18 -18 -18 -18 -17 -17 -17 -18 -17 -17 -17 -17 -17 -17 -17 -18 -17 -17 -17 -17 -17 -17 -17 -17 -17
-21 -21 -20 -20 -20 -20 -20 -20 -20 -19 -19 -20 -20 -19 -19 -19 -19 -18 -18 -18 -18 -18 -18 -18 -18 -18 -18 -18 -18 -18 -18 -18 -18 -18 -18 -18 -18 -18 -17 -17 -17 -18 -18 -17
-23 -22 -21 -21 -20 -20 -20 -20 -20 -20 -20 -20 -19 -19 -19 -19 -19 -19 -19 -19 -19 -19 -19 -19 -18 -18 -18 -18 -18 -18 -18 -18 -18 -18 -18 -18 -18 -18 -17 -18 -18 -18 -19 -19
-23 -23 -23 -22 -22 -21 -21 -20 -20 -20 -19 -20 -20 -20 -20 -19 -20 -19 -19 -19 -19 -19 -19 -19 -19 -19 -19 -19 -19 -19 -20 -20 -19 -19 -19 -19 -20 -20 -20 -20 -20 -20 -21 -22
-22 -22 -23 -23 -23 -22 -22 -22 -22 -22 -22 -22 -21 -20 -20 -20 -20 -19 -19 -20 -20 -20 -20 -21 -22 -22 -22 -21 -21 -20 -20 -20 -20 -20 -20 -20 -21 -21 -22 -22 -23 -24 -25 -25
-23 -23 -23 -24 -24 -24 -24 -23 -23 -23 -23 -23 -23 -23 -23 -23 -23 -23 -23 -23 -23 -23 -23 -22 -22 -22 -22 -22 -21 -21 -21 -22 -22 -22 -23 -23 -24 -24 -25 -25 -25 -25 -25 -25
-23 -24 -25 -26 -26 -27 -26 -26 -25 -24 -24 -24 -24 -24 -24 -24 -24 -24 -24 -24 -23 -24 -24 -23 -23 -23 -23 -23 -23 -23 -24 -24 -25 -25 -25 -25 -25 -25 -25 -25 -25 -25 -25 -25
-24 -25 -26 -27 -27 -27 -27 -28 -28 -27 -27 -27 -27 -26 -26 -26 -26 -26 -26 -25 -26 -26 -26 -26 -25 -25 -25 -25 -26 -27 -27 -27 -26 -26 -26 -26 -26 -25 -25 -25 -25 -26 -26 -26
-26 -26 -27 -27 -28 -27 -27 -27 -27 -27 -28 -28 -28 -28 -28 -28 -27 -27 -27 -27 -27 -27 -27 -27 -27 -27 -27 -27 -27 -27 -26 -26 -26 -26 -26 -26 -26 -25 -25 -26 -26 -26 -27 -27

GFSNW_500_temp_246.txt.gz
Temp
-22 -22 -22 -23 -23 -23 -23 -23 -22 -23 -23 -24 -22 -20 -17 -17 -17 -16 -16 -15 -15 -16 -16 -15 -15 -14 -14 -13 -13 -13 -13 -13 -13 -12 -12 -12 -12 -12 -12 -12 -11 -11 -11 -10
-23 -23 -24 -24 -24 -25 -25 -24 -24 -25 -25 -25 -24 -21 -20 -18 -18 -17 -17 -16 -15 -15 -16 -16 -15 -14 -14 -14 -14 -14 -14 -14 -14 -13 -13 -13 -12 -12 -12 -12 -12 -11 -11 -11
-24 -25 -25 -25 -25 -25 -25 -25 -25 -26 -26 -26 -26 -24 -21 -19 -17 -17 -18 -17 -16 -16 -17 -16 -15 -14 -14 -15 -15 -16 -15 -15 -15 -14 -14 -13 -13 -13 -13 -13 -13 -12 -12 -12
-26 -26 -26 -26 -26 -26 -26 -27 -27 -27 -27 -27 -27 -27 -24 -21 -19 -18 -19 -18 -18 -16 -16 -16 -15 -15 -15 -15 -15 -16 -16 -16 -15 -13 -15 -15 -14 -14 -14 -13 -13 -13 -12 -13
-26 -27 -26 -26 -26 -27 -28 -29 -28 -28 -28 -28 -28 -27 -25 -23 -21 -20 -19 -19 -17 -16 -15 -14 -15 -15 -15 -15 -15 -15 -16 -16 -16 -15 -16 -15 -15 -15 -15 -14 -14 -14 -14 -13
-26 -26 -27 -26 -27 -28 -28 -29 -29 -29 -29 -29 -29 -28 -26 -24 -22 -21 -20 -20 -17 -18 -15 -16 -16 -16 -16 -16 -16 -16 -16 -16 -16 -16 -16 -16 -16 -15 -15 -14 -15 -15 -15 -14
-25 -26 -26 -27 -27 -28 -28 -28 -29 -30 -30 -29 -29 -29 -28 -26 -23 -21 -21 -20 -18 -17 -18 -17 -16 -17 -17 -16 -16 -16 -16 -16 -16 -16 -16 -16 -15 -14 -15 -15 -15 -15 -15 -15
-25 -26 -26 -27 -27 -28 -28 -29 -29 -29 -29 -29 -30 -29 -28 -27 -24 -22 -21 -19 -17 -19 -19 -18 -18 -18 -18 -17 -17 -17 -16 -16 -16 -16 -16 -16 -15 -15 -15 -16 -15 -15 -15 -16
-24 -25 -26 -27 -27 -28 -28 -29 -29 -28 -29 -29 -29 -30 -29 -28 -26 -23 -21 -20 -20 -20 -20 -20 -18 -18 -17 -18 -17 -16 -17 -17 -17 -17 -17 -14 -14 -16 -16 -17 -16 -16 -16 -16
-24 -25 -25 -26 -26 -27 -28 -29 -29 -28 -29 -29 -30 -30 -29 -28 -26 -23 -21 -20 -20 -20 -19 -19 -19 -17 -17 -16 -17 -16 -16 -17 -17 -17 -17 -15 -16 -16 -17 -16 -15 -16 -17 -17
-24 -24 -25 -26 -26 -27 -28 -28 -29 -29 -29 -29 -29 -29 -29 -28 -27 -24 -21 -22 -20 -20 -20 -19 -18 -17 -16 -16 -16 -16 -17 -17 -16 -17 -17 -15 -16 -16 -16 -16 -17 -17 -17 -17
-23 -23 -24 -25 -26 -27 -27 -28 -29 -29 -28 -29 -29 -30 -29 -29 -27 -24 -23 -23 -22 -21 -20 -19 -18 -17 -16 -15 -16 -16 -17 -17 -17 -18 -16 -16 -17 -17 -17 -17 -16 -17 -17 -17
-23 -23 -24 -24 -25 -26 -27 -27 -28 -29 -29 -29 -29 -29 -29 -28 -25 -23 -21 -21 -20 -20 -19 -19 -18 -17 -16 -16 -16 -17 -17 -17 -17 -17 -16 -16 -17 -17 -17 -17 -17 -17 -17 -17
-23 -23 -24 -25 -25 -26 -27 -26 -27 -28 -29 -29 -29 -29 -28 -26 -24 -24 -22 -20 -20 -19 -19 -19 -19 -18 -17 -17 -17 -16 -16 -17 -17 -17 -16 -16 -16 -16 -17 -17 -17 -17 -17 -17
-23 -23 -23 -24 -24 -25 -27 -27 -27 -28 -28 -28 -28 -29 -27 -25 -25 -22 -22 -21 -21 -20 -19 -20 -19 -18 -17 -17 -17 -16 -16 -16 -17 -16 -16 -16 -17 -16 -17 -16 -17 -17 -17 -17
-22 -23 -23 -24 -25 -24 -26 -27 -26 -27 -28 -28 -27 -24 -23 -23 -23 -22 -22 -21 -21 -21 -19 -19 -18 -17 -18 -17 -16 -16 -16 -16 -17 -17 -17 -17 -17 -17 -17 -16 -16 -16 -17 -17
-22 -22 -23 -23 -24 -24 -24 -24 -25 -26 -28 -27 -26 -24 -21 -21 -20 -20 -21 -21 -21 -20 -19 -19 -19 -18 -17 -16 -16 -17 -17 -17 -17 -17 -17 -17 -17 -17 -17 -17 -16 -16 -16 -16
-22 -22 -24 -24 -24 -24 -24 -25 -26 -26 -25 -24 -24 -22 -20 -20 -21 -21 -21 -20 -20 -20 -20 -19 -18 -17 -17 -16 -17 -17 -17 -17 -17 -17 -17 -17 -17 -17 -17 -17 -17 -17 -17 -16
-22 -22 -23 -23 -24 -25 -26 -26 -25 -25 -24 -23 -22 -21 -20 -20 -20 -20 -20 -20 -20 -19 -19 -19 -18 -18 -17 -17 -17 -18 -18 -17 -17 -18 -17 -17 -17 -17 -17 -17 -17 -17 -17 -17
-23 -23 -22 -23 -24 -24 -22 -23 -23 -23 -23 -22 -21 -21 -21 -20 -20 -20 -20 -20 -20 -19 -19 -18 -18 -18 -17 -18 -18 -18 -18 -18 -18 -17 -18 -17 -17 -17 -17 -17 -17 -17 -17 -18
-22 -23 -23 -22 -22 -23 -24 -23 -24 -23 -21 -21 -21 -21 -21 -20 -20 -19 -20 -19 -19 -18 -18 -18 -18 -18 -17 -18 -18 -18 -18 -18 -18 -18 -18 -17 -17 -17 -18 -18 -18 -18 -18 -18
-23 -23 -23 -23 -23 -23 -23 -23 -23 -22 -21 -21 -21 -22 -21 -21 -21 -20 -19 -20 -19 -19 -20 -19 -19 -18 -18 -18 -19 -19 -19 -18 -18 -18 -18 -18 -18 -18 -18 -18 -18 -18 -18 -18
-23 -23 -23 -23 -23 -23 -22 -22 -22 -22 -22 -21 -21 -21 -22 -21 -20 -20 -20 -20 -19 -19 -19 -19 -19 -19 -19 -19 -19 -19 -19 -18 -18 -18 -18 -19 -19 -19 -19 -19 -19 -19 -19 -19
-22 -23 -22 -23 -23 -22 -22 -22 -22 -22 -22 -22 -22 -21 -21 -21 -20 -20 -20 -20 -20 -19 -19 -19 -19 -19 -19 -19 -19 -19 -19 -19 -19 -19 -19 -19 -19 -19 -19 -19 -19 -19 -20 -20
-22 -22 -22 -22 -23 -22 -22 -22 -22 -22 -22 -22 -21 -21 -21 -21 -21 -20 -20 -20 -20 -19 -19 -19 -19 -20 -20 -20 -20 -20 -20 -20 -20 -20 -20 -20 -20 -20 -20 -20 -20 -20 -21 -22
-23 -22 -22 -22 -23 -23 -23 -23 -23 -22 -22 -23 -22 -22 -22 -22 -21 -21 -21 -21 -21 -21 -21 -21 -21 -21 -21 -21 -21 -21 -21 -21 -22 -21 -21 -21 -21 -21 -21 -21 -22 -23 -24 -25
-24 -23 -23 -23 -23 -24 -24 -24 -24 -24 -24 -24 -24 -23 -23 -23 -23 -23 -23 -23 -22 -22 -22 -22 -22 -22 -22 -23 -23 -23 -23 -23 -22 -22 -22 -22 -22 -22 -23 -24 -25 -25 -25 -25

GFSNW_500_temp_252.txt.gz
Temp
-19 -19 -19 -19 -19 -18 -18 -17 -18 -18 -19 -18 -18 -17 -18 -18 -18 -18 -18 -17 -16 -16 -16 -16 -16 -15 -15 -15 -15 -16 -16 -16 -15 -14 -14 -14 -15 -13 -13 -14 -13 -13 -13 -12
-19 -19 -19 -19 -19 -18 -18 -18 -19 -19 -19 -18 -19 -19 -19 -19 -18 -19 -18 -18 -18 -17 -17 -16 -16 -15 -15 -15 -16 -16 -16 -17 -16 -16 -16 -16 -15 -14 -14 -14 -14 -14 -14 -12
-19 -19 -19 -19 -20 -20 -20 -20 -19 -19 -19 -20 -20 -20 -19 -19 -19 -19 -19 -19 -19 -18 -18 -18 -16 -16 -16 -16 -16 -16 -17 -17 -17 -16 -14 -15 -16 -15 -14 -14 -14 -14 -14 -13
-20 -19 -20 -20 -21 -21 -21 -20 -20 -21 -21 -21 -22 -22 -20 -20 -20 -21 -21 -21 -20 -20 -20 -19 -19 -17 -18 -18 -19 -19 -18 -17 -17 -16 -15 -15 -17 -16 -15 -15 -14 -14 -14 -14
-20 -21 -21 -21 -22 -22 -22 -22 -22 -22 -22 -23 -23 -23 -22 -23 -23 -24 -24 -23 -22 -22 -22 -21 -20 -21 -20 -20 -18 -17 -17 -17 -17 -17 -16 -15 -17 -17 -16 -15 -14 -14 -14 -14
-20 -21 -22 -23 -23 -23 -22 -22 -23 -23 -23 -23 -23 -23 -25 -26 -26 -26 -25 -25 -25 -25 -24 -22 -21 -21 -20 -20 -19 -17 -18 -18 -17 -17 -16 -16 -16 -14 -14 -15 -14 -15 -14 -13
-21 -22 -23 -23 -22 -22 -22 -22 -23 -23 -22 -23 -23 -24 -25 -26 -27 -27 -27 -27 -26 -25 -25 -25 -24 -22 -21 -20 -20 -19 -18 -18 -17 -16 -16 -17 -14 -15 -15 -15 -15 -15 -15 -14
-22 -22 -22 -22 -22 -22 -22 -23 -23 -23 -22 -23 -23 -25 -26 -26 -27 -27 -27 -27 -26 -26 -27 -26 -24 -23 -22 -20 -19 -20 -18 -17 -17 -17 -16 -16 -15 -14 -16 -16 -15 -14 -14 -15
-22 -22 -22 -22 -22 -22 -22 -23 -24 -24 -24 -23 -25 -25 -26 -26 -27 -28 -28 -27 -27 -28 -29 -29 -28 -25 -23 -21 -19 -19 -18 -18 -17 -17 -17 -17 -13 -16 -15 -16 -15 -16 -16 -16
-23 -22 -22 -22 -22 -22 -22 -23 -24 -25 -24 -24 -26 -26 -26 -27 -28 -28 -28 -28 -29 -29 -29 -29 -28 -27 -26 -23 -20 -20 -19 -19 -18 -17 -17 -15 -14 -15 -16 -16 -12 -16 -16 -16
-23 -22 -22 -22 -22 -22 -23 -23 -24 -25 -25 -25 -26 -26 -27 -27 -28 -28 -29 -29 -29 -29 -29 -29 -28 -28 -27 -23 -20 -20 -19 -19 -19 -18 -18 -16 -14 -15 -15 -14 -16 -16 -16 -16
-22 -22 -22 -22 -22 -22 -23 -23 -24 -25 -25 -25 -26 -26 -27 -28 -28 -29 -29 -29 -29 -29 -30 -29 -29 -28 -26 -23 -21 -22 -21 -19 -19 -18 -15 -16 -15 -16 -16 -16 -16 -16 -16 -16
-22 -22 -22 -21 -22 -23 -23 -24 -24 -26 -25 -25 -25 -26 -29 -28 -28 -29 -29 -29 -29 -30 -30 -29 -28 -27 -25 -22 -21 -20 -19 -19 -19 -18 -17 -17 -17 -17 -17 -17 -17 -17 -17 -17
-22 -22 -22 -22 -22 -23 -24 -25 -26 -27 -27 -27 -24 -27 -28 -29 -29 -29 -29 -29 -30 -30 -30 -29 -28 -26 -25 -22 -20 -20 -18 -19 -18 -17 -18 -17 -17 -17 -17 -17 -17 -18 -17 -17
-22 -21 -22 -22 -23 -24 -25 -26 -26 -26 -27 -27 -27 -27 -28 -28 -29 -29 -29 -29 -29 -30 -30 -29 -27 -26 -24 -22 -21 -19 -19 -19 -18 -17 -18 -18 -18 -18 -17 -17 -17 -17 -16 -16
-22 -22 -22 -23 -23 -25 -26 -26 -25 -25 -28 -28 -27 -28 -28 -28 -29 -29 -29 -29 -29 -29 -29 -28 -26 -25 -23 -21 -20 -19 -19 -19 -19 -19 -19 -18 -17 -17 -17 -16 -16 -16 -16 -16
-23 -22 -23 -23 -24 -25 -25 -25 -25 -27 -28 -28 -28 -28 -28 -28 -29 -29 -29 -29 -29 -29 -28 -26 -26 -24 -23 -22 -20 -20 -20 -20 -20 -19 -18 -18 -18 -17 -16 -16 -16 -16 -17 -17
-23 -23 -23 -24 -25 -25 -25 -25 -26 -27 -28 -28 -28 -28 -28 -29 -28 -29 -29 -29 -29 -28 -26 -25 -24 -23 -23 -22 -20 -20 -20 -20 -19 -18 -18 -18 -17 -17 -17 -17 -17 -17 -17 -17
-23 -23 -24 -25 -25 -24 -25 -25 -26 -26 -26 -26 -27 -28 -28 -27 -28 -27 -28 -29 -27 -26 -24 -23 -23 -22 -21 -20 -20 -20 -19 -20 -19 -18 -18 -18 -18 -18 -17 -17 -17 -17 -17 -17
-23 -23 -23 -25 -26 -25 -25 -25 -25 -25 -25 -26 -26 -27 -27 -27 -27 -27 -27 -27 -26 -24 -24 -23 -22 -21 -20 -19 -20 -19 -20 -19 -19 -19 -19 -19 -18 -18 -17 -17 -17 -17 -18 -18
-22 -23 -22 -23 -25 -24 -24 -24 -24 -25 -24 -25 -25 -25 -25 -25 -26 -25 -25 -25 -24 -24 -23 -22 -21 -20 -20 -19 -19 -19 -19 -19 -19 -19 -19 -19 -18 -18 -17 -18 -18 -17 -18 -18
-22 -22 -22 -22 -23 -22 -23 -23 -24 -24 -24 -24 -24 -24 -24 -24 -24 -24 -24 -23 -23 -22 -22 -22 -21 -20 -21 -21 -20 -20 -20 -20 -19 -19 -19 -18 -18 -18 -18 -18 -18 -18 -18 -18
-22 -22 -22 -22 -22 -23 -23 -24 -24 -24 -24 -24 -23 -23 -23 -23 -22 -22 -22 -22 -22 -22 -22 -21 -19 -19 -19 -20 -20 -20 -20 -19 -18 -19 -18 -18 -18 -18 -18 -18 -19 -18 -18 -18
-22 -22 -22 -22 -22 -23 -23 -24 -24 -24 -24 -23 -23 -22 -22 -23 -22 -22 -22 -21 -21 -21 -21 -20 -20 -20 -20 -20 -20 -20 -20 -20 -20 -19 -19 -19 -19 -19 -19 -19 -19 -19 -19 -19
-23 -23 -22 -23 -23 -23 -22 -22 -22 -22 -22 -22 -22 -22 -22 -22 -22 -22 -22 -22 -22 -21 -21 -20 -20 -20 -20 -20 -20 -20 -20 -19 -20 -19 -19 -19 -19 -19 -19 -19 -19 -19 -19 -19
-22 -23 -23 -23 -23 -23 -23 -23 -22 -22 -22 -21 -22 -22 -22 -21 -22 -21 -21 -21 -21 -21 -21 -21 -20 -20 -20 -20 -20 -20 -20 -20 -20 -20 -19 -19 -19 -19 -19 -20 -20 -21 -21 -21
-22 -23 -23 -23 -23 -23 -23 -23 -24 -24 -23 -23 -22 -22 -22 -22 -22 -22 -22 -21 -21 -21 -21 -21 -21 -20 -20 -20 -21 -20 -20 -20 -20 -21 -20 -20 -20 -21 -21 -21 -21 -22 -22 -22

GFSNW_500_temp_255.txt.gz
Temp
-17 -17 -18 -18 -18 -18 -18 -18 -19 -18 -19 -19 -18 -17 -18 -18 -18 -18 -17 -17 -17 -17 -17 -16 -16 -16 -16 -18 -18 -17 -18 -18 -18 -14 -15 -16 -16 -15 -14 -14 -14 -14 -14 -13
-18 -18 -18 -18 -18 -18 -18 -18 -18 -18 -18 -18 -18 -18 -18 -18 -18 -18 -18 -18 -18 -18 -17 -17 -16 -16 -16 -17 -18 -18 -18 -18 -17 -16 -16 -16 -16 -15 -16 -16 -15 -15 -15 -14
-18 -18 -18 -19 -18 -18 -18 -18 -18 -18 -18 -18 -19 -19 -18 -18 -19 -19 -19 -19 -19 -18 -18 -19 -18 -17 -17 -17 -18 -19 -19 -19 -19 -17 -15 -16 -16 -16 -15 -16 -16 -15 -14 -13
-18 -18 -18 -19 -19 -19 -19 -19 -19 -19 -19 -19 -19 -20 -20 -20 -20 -21 -21 -20 -20 -20 -20 -20 -19 -18 -17 -17 -20 -19 -19 -19 -19 -17 -15 -16 -16 -16 -15 -16 -16 -16 -14 -16
-18 -18 -19 -19 -19 -19 -19 -19 -20 -20 -20 -20 -20 -21 -21 -22 -22 -22 -22 -21 -21 -22 -22 -21 -20 -20 -19 -19 -19 -19 -18 -19 -19 -18 -15 -16 -17 -16 -17 -16 -15 -16 -16 -16
-18 -19 -19 -19 -20 -20 -19 -20 -20 -21 -21 -21 -21 -21 -21 -22 -23 -23 -23 -22 -23 -25 -24 -24 -25 -21 -20 -18 -17 -19 -19 -19 -18 -17 -16 -18 -18 -16 -16 -15 -16 -15 -15 -15
-19 -19 -20 -20 -20 -20 -20 -21 -22 -21 -21 -21 -21 -22 -22 -22 -23 -23 -24 -24 -24 -24 -26 -26 -25 -23 -21 -20 -19 -19 -20 -20 -18 -17 -17 -17 -14 -16 -16 -16 -15 -16 -16 -15
-19 -20 -20 -20 -21 -22 -22 -22 -22 -21 -21 -21 -21 -22 -23 -23 -24 -24 -24 -25 -26 -27 -27 -27 -26 -25 -24 -22 -21 -20 -21 -21 -19 -18 -17 -17 -16 -15 -16 -16 -15 -15 -15 -16
-20 -20 -21 -22 -23 -23 -23 -22 -22 -21 -21 -20 -22 -22 -23 -24 -25 -25 -25 -26 -27 -28 -27 -27 -26 -26 -25 -24 -24 -22 -22 -22 -21 -19 -18 -17 -15 -17 -16 -15 -15 -15 -15 -15
-20 -21 -22 -23 -23 -23 -23 -22 -22 -21 -21 -21 -23 -23 -24 -25 -26 -26 -26 -27 -28 -28 -28 -28 -27 -26 -26 -25 -25 -24 -24 -23 -21 -19 -19 -17 -16 -16 -16 -16 -14 -16 -16 -16
-21 -22 -22 -23 -23 -23 -23 -22 -22 -22 -21 -22 -23 -24 -24 -25 -25 -26 -27 -27 -27 -28 -28 -28 -27 -28 -27 -27 -25 -24 -24 -23 -23 -20 -20 -18 -16 -17 -17 -16 -17 -17 -17 -17
-22 -22 -23 -23 -23 -23 -22 -21 -22 -23 -22 -22 -23 -24 -24 -25 -27 -26 -27 -28 -28 -28 -28 -28 -28 -28 -28 -28 -27 -27 -26 -24 -23 -21 -19 -19 -19 -18 -18 -17 -17 -17 -17 -17
-23 -23 -23 -23 -23 -22 -22 -22 -22 -23 -23 -23 -23 -24 -27 -27 -27 -28 -27 -28 -28 -29 -28 -28 -28 -28 -28 -28 -28 -27 -27 -26 -23 -20 -18 -19 -19 -19 -19 -18 -17 -16 -17 -16
-23 -23 -23 -23 -22 -22 -22 -23 -23 -24 -25 -25 -24 -26 -27 -28 -29 -28 -28 -28 -29 -29 -29 -29 -29 -28 -28 -28 -28 -28 -27 -26 -22 -20 -19 -19 -18 -16 -18 -18 -16 -16 -17 -17
-23 -23 -23 -23 -23 -23 -23 -23 -24 -25 -26 -25 -25 -26 -27 -28 -28 -28 -29 -28 -28 -29 -29 -29 -29 -28 -29 -28 -28 -27 -26 -25 -22 -19 -19 -17 -17 -17 -18 -18 -17 -17 -17 -17
-23 -23 -23 -23 -23 -23 -24 -25 -25 -24 -26 -27 -26 -27 -27 -27 -28 -29 -29 -29 -29 -29 -29 -29 -29 -29 -29 -29 -27 -25 -25 -23 -20 -19 -20 -18 -17 -19 -18 -17 -17 -17 -17 -17
-23 -23 -23 -23 -24 -24 -24 -25 -25 -26 -27 -28 -27 -27 -27 -28 -28 -28 -28 -28 -28 -29 -29 -29 -28 -29 -29 -28 -24 -25 -23 -22 -20 -18 -19 -17 -17 -18 -18 -18 -17 -17 -17 -17
-22 -23 -23 -24 -23 -24 -25 -25 -25 -26 -27 -27 -27 -27 -28 -28 -28 -28 -28 -28 -29 -28 -28 -28 -28 -28 -28 -24 -22 -22 -21 -20 -19 -18 -18 -18 -18 -18 -18 -18 -18 -17 -17 -17
-22 -23 -23 -23 -24 -25 -25 -25 -25 -25 -25 -26 -26 -28 -28 -27 -28 -28 -28 -28 -28 -29 -28 -28 -28 -27 -24 -22 -23 -22 -20 -19 -18 -19 -19 -19 -19 -19 -18 -18 -17 -17 -17 -16
-22 -23 -23 -22 -22 -23 -24 -24 -24 -25 -25 -25 -26 -26 -26 -27 -27 -27 -27 -27 -28 -28 -27 -28 -25 -23 -23 -23 -22 -20 -20 -19 -19 -19 -19 -19 -19 -19 -18 -18 -18 -17 -17 -17
-22 -22 -22 -21 -22 -22 -23 -24 -24 -24 -25 -25 -25 -26 -26 -26 -27 -27 -27 -27 -27 -26 -26 -24 -23 -23 -24 -23 -21 -20 -20 -20 -20 -20 -19 -19 -19 -18 -19 -18 -18 -17 -18 -18
-22 -22 -22 -21 -22 -22 -23 -23 -23 -24 -24 -24 -24 -24 -25 -25 -26 -26 -26 -26 -26 -25 -23 -22 -22 -22 -22 -21 -20 -20 -20 -19 -19 -19 -19 -19 -19 -19 -19 -18 -18 -18 -18 -18
-22 -22 -22 -22 -22 -22 -23 -23 -24 -23 -23 -23 -23 -23 -24 -24 -24 -24 -24 -24 -24 -24 -23 -22 -22 -22 -21 -21 -20 -20 -20 -20 -19 -20 -20 -19 -19 -19 -19 -19 -19 -18 -18 -18
-22 -22 -23 -22 -23 -23 -23 -23 -23 -24 -23 -23 -23 -23 -23 -23 -23 -23 -23 -23 -23 -22 -21 -21 -20 -21 -21 -21 -20 -20 -20 -20 -19 -19 -19 -19 -20 -19 -19 -19 -18 -18 -19 -19
-22 -22 -22 -22 -22 -22 -23 -23 -23 -22 -23 -22 -22 -22 -22 -22 -22 -22 -22 -22 -22 -21 -21 -21 -21 -20 -20 -21 -21 -20 -20 -20 -20 -20 -20 -20 -19 -19 -19 -19 -19 -20 -20 -19
-22 -22 -22 -22 -22 -22 -22 -23 -23 -23 -22 -22 -23 -22 -22 -22 -22 -23 -23 -22 -22 -22 -22 -21 -21 -20 -20 -20 -20 -20 -20 -20 -20 -20 -20 -20 -19 -19 -19 -20 -20 -20 -20 -20
-22 -22 -22 -22 -22 -22 -22 -22 -22 -22 -22 -23 -23 -23 -23 -22 -22 -22 -22 -22 -21 -21 -22 -21 -21 -21 -21 -21 -20 -20 -20 -20 -20 -20 -20 -20 -20 -20 -20 -20 -20 -20 -20 -20